Orbital Elements at Epoch 2459200.5 (2020-Dec-17.0) TDB
Reference: JPL 17 (heliocentric ecliptic J2000)
Element | Value | Uncertainty (1-sigma) | Units |
e | .1644350460104356 | 4.0089e-08 | |
a | 2.463474856355571 | 1.595e-08 | au |
q | 2.058393255005191 | 1.0012e-07 | au |
i | 1.430429398151091 | 5.9128e-06 | deg |
node | 215.2562604853738 | 0.00018239 | deg |
peri | 286.474632721862 | 0.0001842 | deg |
M | 241.3611218429849 | 3.2078e-05 | deg |
tp | 2459665.920124966667 (2022-Mar-27.42012497) | 0.00012938 | TDB |
period | 1412.279411191423 3.87 | 1.3716e-05 3.755e-08 | d yr |
n | .2549070652359776 | 2.4756e-09 | deg/d |
Q | 2.86855645770595 | 1.8572e-08 | au |
|
| | Orbit Determination Parameters
Additional Information
|